﻿"﻿平均氣溫 (攝氏度) - �۱^"
"Mean Temperature (°C) - Shek Kong"
年/Year,月/Month,日/Day,數值/Value,"數據完整性/data Completeness"
1996,12,1,16.7,C
1996,12,2,16.1,C
1996,12,3,18.4,C
1996,12,4,20.8,#
1996,12,5,17.8,C
1996,12,6,14.0,C
1996,12,7,14.6,C
1996,12,8,15.7,C
1996,12,9,14.2,C
1996,12,10,14.8,C
1996,12,11,15.8,C
1996,12,12,16.9,C
1996,12,13,15.3,C
1996,12,14,15.6,C
1996,12,15,18.7,C
1996,12,16,20.2,C
1996,12,17,20.7,#
1996,12,18,17.2,C
1996,12,19,15.9,C
1996,12,20,14.1,C
1996,12,21,14.6,C
1996,12,22,15.2,C
1996,12,23,15.4,C
1996,12,24,16.0,C
1996,12,25,15.6,C
1996,12,26,19.7,C
1996,12,27,18.7,C
1996,12,28,19.6,C
1996,12,29,18.9,C
1996,12,30,17.7,C
1996,12,31,18.0,C
1997,1,1,18.3,C
1997,1,2,19.3,C
1997,1,3,16.4,C
1997,1,4,16.8,C
1997,1,5,15.4,#
1997,1,6,15.3,#
1997,1,7,14.6,#
1997,1,8,11.9,C
1997,1,9,10.7,C
1997,1,10,10.9,C
1997,1,11,11.3,C
1997,1,12,13.5,C
1997,1,13,17.4,C
1997,1,14,17.1,C
1997,1,15,16.9,C
1997,1,16,17.3,C
1997,1,17,17.8,#
1997,1,18,17.7,C
1997,1,19,17.4,C
1997,1,20,17.9,C
1997,1,21,20.0,C
1997,1,22,16.4,C
1997,1,23,15.6,C
1997,1,24,9.9,#
1997,1,25,9.2,C
1997,1,26,12.5,C
1997,1,27,12.3,C
1997,1,28,12.9,C
1997,1,29,15.6,C
1997,1,30,17.7,C
1997,1,31,19.7,C
1997,2,1,17.3,#
1997,2,2,***,
1997,2,3,12.8,#
1997,2,4,14.3,C
1997,2,5,13.9,C
1997,2,6,12.5,C
1997,2,7,11.9,C
1997,2,8,12.9,C
1997,2,9,14.3,C
1997,2,10,14.2,C
1997,2,11,14.0,C
1997,2,12,13.2,C
1997,2,13,12.9,#
1997,2,14,14.5,C
1997,2,15,13.1,C
1997,2,16,11.6,C
1997,2,17,11.6,C
1997,2,18,12.3,C
1997,2,19,14.6,C
1997,2,20,16.5,C
1997,2,21,17.4,C
1997,2,22,18.5,C
1997,2,23,18.8,C
1997,2,24,20.5,C
1997,2,25,21.3,C
1997,2,26,21.9,C
1997,2,27,21.0,C
1997,2,28,20.6,C
1997,3,1,20.3,C
1997,3,2,17.0,C
1997,3,3,14.9,C
1997,3,4,17.2,C
1997,3,5,19.4,C
1997,3,6,19.7,C
1997,3,7,20.1,C
1997,3,8,20.8,C
1997,3,9,20.9,C
1997,3,10,22.1,C
1997,3,11,21.6,C
1997,3,12,22.4,C
1997,3,13,22.9,C
1997,3,14,23.5,C
1997,3,15,23.2,C
1997,3,16,21.2,C
1997,3,17,17.3,C
1997,3,18,19.4,C
1997,3,19,21.2,C
1997,3,20,16.4,C
1997,3,21,18.1,C
1997,3,22,17.5,C
1997,3,23,16.2,C
1997,3,24,17.2,C
1997,3,25,19.4,C
1997,3,26,21.8,C
1997,3,27,20.8,C
1997,3,28,20.3,C
1997,3,29,20.9,C
1997,3,30,21.4,C
1997,3,31,21.2,C
1997,4,1,20.8,C
1997,4,2,24.1,C
1997,4,3,24.2,C
1997,4,4,20.9,C
1997,4,5,21.5,C
1997,4,6,21.2,C
1997,4,7,22.1,C
1997,4,8,23.6,C
1997,4,9,23.9,C
1997,4,10,21.1,C
1997,4,11,22.1,C
1997,4,12,22.2,C
1997,4,13,23.0,C
1997,4,14,24.3,C
1997,4,15,23.9,#
1997,4,16,***,
1997,4,17,***,
1997,4,18,***,
1997,4,19,***,
1997,4,20,***,
1997,4,21,***,
1997,4,22,***,
1997,4,23,***,
1997,4,24,20.9,#
1997,4,25,19.6,C
1997,4,26,21.5,#
1997,4,27,19.8,#
1997,4,28,***,
1997,4,29,***,
1997,4,30,***,
1997,5,1,***,
1997,5,2,***,
1997,5,3,***,
1997,5,4,***,
1997,5,5,24.6,#
1997,5,6,25.2,C
1997,5,7,24.5,C
1997,5,8,25.3,C
1997,5,9,23.7,C
1997,5,10,23.5,C
1997,5,11,27.3,C
1997,5,12,27.7,C
1997,5,13,28.2,C
1997,5,14,28.1,C
1997,5,15,28.5,C
1997,5,16,28.3,C
1997,5,17,27.2,C
1997,5,18,27.7,C
1997,5,19,28.1,C
1997,5,20,25.4,C
1997,5,21,24.5,C
1997,5,22,23.2,C
1997,5,23,21.5,C
1997,5,24,22.2,C
1997,5,25,24.8,C
1997,5,26,24.7,C
1997,5,27,25.0,C
1997,5,28,25.6,C
1997,5,29,25.3,C
1997,5,30,25.9,C
1997,5,31,26.7,C
1997,6,1,27.1,C
1997,6,2,28.1,C
1997,6,3,28.2,C
1997,6,4,27.5,C
1997,6,5,28.2,C
1997,6,6,28.5,C
1997,6,7,28.5,C
1997,6,8,29.0,C
1997,6,9,29.0,C
1997,6,10,26.5,C
1997,6,11,25.2,C
1997,6,12,26.3,C
1997,6,13,24.7,C
1997,6,14,25.1,C
1997,6,15,24.1,C
1997,6,16,23.5,C
1997,6,17,23.8,C
1997,6,18,24.3,C
1997,6,19,26.3,C
1997,6,20,27.9,C
1997,6,21,27.8,C
1997,6,22,26.1,C
1997,6,23,28.1,C
1997,6,24,27.9,C
1997,6,25,28.9,#
1997,6,26,27.0,C
1997,6,27,27.3,C
1997,6,28,28.0,C
1997,6,29,27.9,C
1997,6,30,27.9,C
1997,7,1,27.0,#
1997,7,2,***,
1997,7,3,***,
1997,7,4,***,
1997,7,5,***,
1997,7,6,***,
1997,7,7,***,
1997,7,8,***,
1997,7,9,***,
1997,7,10,***,
1997,7,11,***,
1997,7,12,***,
1997,7,13,***,
1997,7,14,***,
1997,7,15,***,
1997,7,16,26.9,#
1997,7,17,25.8,C
1997,7,18,26.1,C
1997,7,19,24.8,C
1997,7,20,26.4,C
1997,7,21,27.9,C
1997,7,22,27.7,C
1997,7,23,27.2,C
1997,7,24,27.9,C
1997,7,25,27.5,C
1997,7,26,28.7,C
1997,7,27,28.7,C
1997,7,28,28.6,C
1997,7,29,27.1,C
1997,7,30,29.1,C
1997,7,31,28.8,C
1997,8,1,27.3,C
1997,8,2,26.0,C
1997,8,3,26.3,C
1997,8,4,27.6,C
1997,8,5,28.8,C
1997,8,6,29.1,C
1997,8,7,27.1,C
1997,8,8,25.6,C
1997,8,9,26.6,C
1997,8,10,27.2,C
1997,8,11,27.9,C
1997,8,12,25.7,C
1997,8,13,26.4,C
1997,8,14,27.3,C
1997,8,15,27.8,C
1997,8,16,26.5,C
1997,8,17,27.2,C
1997,8,18,28.5,C
1997,8,19,28.8,C
1997,8,20,27.8,C
1997,8,21,26.2,C
1997,8,22,25.9,C
1997,8,23,27.2,C
1997,8,24,26.8,C
1997,8,25,27.1,C
1997,8,26,27.4,C
1997,8,27,27.8,C
1997,8,28,28.7,C
1997,8,29,29.4,C
1997,8,30,29.7,C
1997,8,31,29.2,#
1997,9,1,29.1,C
1997,9,2,27.9,C
1997,9,3,26.6,C
1997,9,4,26.1,C
1997,9,5,26.9,C
1997,9,6,27.7,C
1997,9,7,24.7,C
1997,9,8,25.3,C
1997,9,9,26.5,C
1997,9,10,27.0,C
1997,9,11,26.8,C
1997,9,12,27.1,C
1997,9,13,28.0,C
1997,9,14,27.1,C
1997,9,15,26.7,C
1997,9,16,26.4,C
1997,9,17,26.4,C
1997,9,18,25.9,C
1997,9,19,25.7,C
1997,9,20,26.2,C
1997,9,21,18.9,C
1997,9,22,22.5,C
1997,9,23,25.1,C
1997,9,24,25.6,C
1997,9,25,23.3,#
1997,9,26,***,
1997,9,27,22.8,#
1997,9,28,18.4,C
1997,9,29,20.1,C
1997,9,30,22.8,#
1997,10,1,24.4,C
1997,10,2,26.6,C
1997,10,3,25.7,C
1997,10,4,27.0,C
1997,10,5,26.4,C
1997,10,6,25.5,C
1997,10,7,25.3,C
1997,10,8,24.7,C
1997,10,9,24.7,C
1997,10,10,25.2,C
1997,10,11,26.3,C
1997,10,12,26.8,C
1997,10,13,26.0,C
1997,10,14,25.5,C
1997,10,15,25.4,C
1997,10,16,26.1,#
1997,10,17,24.9,C
1997,10,18,25.1,C
1997,10,19,25.2,C
1997,10,20,25.7,C
1997,10,21,26.7,C
1997,10,22,26.5,C
1997,10,23,25.5,C
1997,10,24,25.3,C
1997,10,25,24.6,C
1997,10,26,23.9,C
1997,10,27,20.5,C
1997,10,28,18.2,C
1997,10,29,20.9,C
1997,10,30,21.5,C
1997,10,31,20.3,C
1997,11,1,19.0,C
1997,11,2,19.1,C
1997,11,3,20.7,C
1997,11,4,21.1,C
1997,11,5,19.2,C
1997,11,6,17.5,C
1997,11,7,18.9,C
1997,11,8,20.7,C
1997,11,9,21.8,C
1997,11,10,22.2,C
1997,11,11,23.2,C
1997,11,12,23.8,C
1997,11,13,23.3,C
1997,11,14,23.0,#
1997,11,15,23.8,C
1997,11,16,23.1,C
1997,11,17,16.4,C
1997,11,18,15.3,C
1997,11,19,18.8,C
1997,11,20,20.5,C
1997,11,21,21.8,C
1997,11,22,22.8,C
1997,11,23,21.9,C
1997,11,24,23.5,C
1997,11,25,25.3,C
1997,11,26,25.4,C
1997,11,27,25.2,C
1997,11,28,24.4,C
1997,11,29,21.1,C
1997,11,30,19.5,C
1997,12,1,20.9,C
1997,12,2,13.4,C
1997,12,3,13.6,C
1997,12,4,16.3,C
1997,12,5,19.1,#
1997,12,6,22.0,C
1997,12,7,19.3,C
1997,12,8,14.1,C
1997,12,9,12.9,C
1997,12,10,12.6,C
1997,12,11,12.2,C
1997,12,12,12.2,C
1997,12,13,12.8,C
1997,12,14,14.6,C
1997,12,15,17.5,C
1997,12,16,19.3,C
1997,12,17,20.0,C
1997,12,18,19.5,C
1997,12,19,20.7,C
1997,12,20,20.8,C
1997,12,21,21.0,C
1997,12,22,16.9,C
1997,12,23,13.6,C
1997,12,24,13.5,C
1997,12,25,17.8,C
1997,12,26,17.9,C
1997,12,27,18.0,C
1997,12,28,19.3,C
1997,12,29,18.9,C
1997,12,30,19.7,C
1997,12,31,20.0,C
1998,1,1,20.7,C
1998,1,2,18.8,C
1998,1,3,20.4,C
1998,1,4,18.6,C
1998,1,5,13.9,C
1998,1,6,15.7,C
1998,1,7,18.4,C
1998,1,8,20.5,C
1998,1,9,19.8,C
1998,1,10,22.2,C
1998,1,11,19.4,C
1998,1,12,16.9,C
1998,1,13,20.2,C
1998,1,14,20.1,C
1998,1,15,12.2,C
1998,1,16,13.7,C
1998,1,17,13.9,C
1998,1,18,10.1,C
1998,1,19,8.5,C
1998,1,20,9.3,C
1998,1,21,10.0,C
1998,1,22,14.1,C
1998,1,23,11.4,C
1998,1,24,8.2,C
1998,1,25,8.9,C
1998,1,26,10.7,C
1998,1,27,12.6,C
1998,1,28,13.1,C
1998,1,29,12.1,C
1998,1,30,15.5,C
1998,1,31,17.0,C
1998,2,1,18.4,C
1998,2,2,18.4,C
1998,2,3,19.8,C
1998,2,4,11.0,C
1998,2,5,7.3,C
1998,2,6,7.4,C
1998,2,7,10.4,C
1998,2,8,12.9,C
1998,2,9,17.0,C
1998,2,10,19.0,C
1998,2,11,18.4,C
1998,2,12,20.2,C
1998,2,13,21.5,C
1998,2,14,19.8,C
1998,2,15,18.5,C
1998,2,16,23.6,C
1998,2,17,23.2,C
1998,2,18,19.4,C
1998,2,19,24.0,C
1998,2,20,23.9,C
1998,2,21,16.7,C
1998,2,22,12.4,C
1998,2,23,12.5,C
1998,2,24,14.0,C
1998,2,25,15.4,C
1998,2,26,14.2,C
1998,2,27,13.7,C
1998,2,28,13.7,C
1998,3,1,15.0,C
1998,3,2,16.2,C
1998,3,3,18.3,C
1998,3,4,18.2,C
1998,3,5,18.6,C
1998,3,6,19.2,C
1998,3,7,21.8,C
1998,3,8,22.5,C
1998,3,9,24.5,C
1998,3,10,15.1,C
1998,3,11,11.8,C
1998,3,12,12.7,C
1998,3,13,15.7,C
1998,3,14,17.9,C
1998,3,15,18.3,C
1998,3,16,19.8,C
1998,3,17,20.1,C
1998,3,18,19.6,C
1998,3,19,24.4,C
1998,3,20,25.0,C
1998,3,21,16.6,C
1998,3,22,12.8,C
1998,3,23,18.4,C
1998,3,24,19.3,C
1998,3,25,21.0,C
1998,3,26,22.4,C
1998,3,27,23.5,C
1998,3,28,23.8,C
1998,3,29,23.5,C
1998,3,30,23.5,C
1998,3,31,23.0,C
1998,4,1,23.1,C
1998,4,2,22.1,C
1998,4,3,20.7,C
1998,4,4,22.7,C
1998,4,5,24.5,C
1998,4,6,23.8,C
1998,4,7,23.7,C
1998,4,8,24.4,C
1998,4,9,25.4,C
1998,4,10,26.0,C
1998,4,11,25.9,C
1998,4,12,23.1,C
1998,4,13,23.9,C
1998,4,14,21.8,C
1998,4,15,22.8,C
1998,4,16,23.3,C
1998,4,17,24.4,C
1998,4,18,24.8,C
1998,4,19,23.3,C
1998,4,20,22.8,#
1998,4,21,24.7,C
1998,4,22,26.0,C
1998,4,23,26.9,C
1998,4,24,27.0,C
1998,4,25,26.1,C
1998,4,26,25.7,C
1998,4,27,22.9,C
1998,4,28,24.2,C
1998,4,29,24.5,C
1998,4,30,25.1,C
1998,5,1,27.3,C
1998,5,2,25.3,C
1998,5,3,23.4,C
1998,5,4,24.7,C
1998,5,5,25.8,C
1998,5,6,26.3,C
1998,5,7,27.6,#
1998,5,8,27.2,C
1998,5,9,27.3,C
1998,5,10,28.6,C
1998,5,11,27.9,C
1998,5,12,26.8,C
1998,5,13,27.5,C
1998,5,14,27.6,C
1998,5,15,25.7,C
1998,5,16,26.9,C
1998,5,17,25.5,C
1998,5,18,26.6,C
1998,5,19,25.6,C
1998,5,20,26.3,C
1998,5,21,25.9,C
1998,5,22,27.1,C
1998,5,23,27.5,C
1998,5,24,23.9,C
1998,5,25,21.1,C
1998,5,26,22.5,C
1998,5,27,25.2,C
1998,5,28,26.2,C
1998,5,29,27.8,C
1998,5,30,25.7,C
1998,5,31,25.3,C
1998,6,1,28.3,C
1998,6,2,27.9,C
1998,6,3,27.6,C
1998,6,4,26.3,C
1998,6,5,25.9,C
1998,6,6,22.5,C
1998,6,7,23.1,C
1998,6,8,25.2,C
1998,6,9,24.8,C
1998,6,10,26.3,C
1998,6,11,26.5,C
1998,6,12,28.5,C
1998,6,13,29.3,C
1998,6,14,29.4,C
1998,6,15,29.6,C
1998,6,16,29.6,C
1998,6,17,29.6,C
1998,6,18,28.9,C
1998,6,19,28.0,C
1998,6,20,28.9,C
1998,6,21,29.3,C
1998,6,22,28.2,C
1998,6,23,25.4,C
1998,6,24,27.9,C
1998,6,25,28.7,#
1998,6,26,27.2,C
1998,6,27,25.6,C
1998,6,28,28.4,C
1998,6,29,28.4,C
1998,6,30,29.2,C
1998,7,1,28.2,C
1998,7,2,26.0,C
1998,7,3,24.5,C
1998,7,4,25.0,C
1998,7,5,25.7,C
1998,7,6,25.7,C
1998,7,7,26.9,C
1998,7,8,26.9,C
1998,7,9,27.6,C
1998,7,10,28.7,C
1998,7,11,28.9,C
1998,7,12,28.0,C
1998,7,13,***,
1998,7,14,***,
1998,7,15,***,
1998,7,16,***,
1998,7,17,***,
1998,7,18,***,
1998,7,19,***,
1998,7,20,***,
1998,7,21,***,
1998,7,22,***,
1998,7,23,***,
1998,7,24,***,
1998,7,25,***,
1998,7,26,***,
1998,7,27,***,
1998,7,28,***,
1998,7,29,***,
1998,7,30,***,
1998,7,31,***,
1998,8,1,***,
1998,8,2,***,
1998,8,3,***,
1998,8,4,***,
1998,8,5,***,
1998,8,6,***,
1998,8,7,***,
1998,8,8,***,
1998,8,9,***,
1998,8,10,***,
1998,8,11,***,
1998,8,12,***,
1998,8,13,***,
1998,8,14,***,
1998,8,15,***,
1998,8,16,***,
1998,8,17,***,
1998,8,18,***,
1998,8,19,***,
1998,8,20,***,
1998,8,21,***,
1998,8,22,***,
1998,8,23,***,
1998,8,24,***,
1998,8,25,***,
1998,8,26,27.7,#
1998,8,27,26.9,#
1998,8,28,25.6,#
1998,8,29,27.9,C
1998,8,30,27.9,C
1998,8,31,25.7,C
1998,9,1,25.3,C
1998,9,2,26.5,C
1998,9,3,27.3,C
1998,9,4,26.8,C
1998,9,5,27.0,C
1998,9,6,25.5,C
1998,9,7,26.1,C
1998,9,8,27.0,C
1998,9,9,26.7,C
1998,9,10,25.7,C
1998,9,11,25.8,C
1998,9,12,25.5,C
1998,9,13,25.7,C
1998,9,14,27.1,C
1998,9,15,28.4,C
1998,9,16,28.0,C
1998,9,17,27.5,C
1998,9,18,26.9,C
1998,9,19,25.2,C
1998,9,20,25.5,C
1998,9,21,24.7,C
1998,9,22,25.1,C
1998,9,23,26.1,C
1998,9,24,26.8,C
1998,9,25,27.3,C
1998,9,26,27.3,C
1998,9,27,27.3,C
1998,9,28,26.9,C
1998,9,29,24.9,C
1998,9,30,25.4,C
1998,10,1,25.8,C
1998,10,2,25.7,C
1998,10,3,26.4,C
1998,10,4,24.9,C
1998,10,5,25.1,C
1998,10,6,25.7,C
1998,10,7,26.2,C
1998,10,8,26.8,C
1998,10,9,25.0,C
1998,10,10,24.3,C
1998,10,11,25.7,C
1998,10,12,26.8,C
1998,10,13,26.6,C
1998,10,14,27.3,C
1998,10,15,25.2,C
1998,10,16,24.4,C
1998,10,17,24.0,C
1998,10,18,22.4,C
1998,10,19,24.0,C
1998,10,20,24.1,C
1998,10,21,23.1,C
1998,10,22,22.6,C
1998,10,23,23.1,C
1998,10,24,23.8,C
1998,10,25,21.8,C
1998,10,26,21.1,C
1998,10,27,22.4,C
1998,10,28,21.7,C
1998,10,29,22.7,C
1998,10,30,22.9,C
1998,10,31,22.5,C
1998,11,1,23.7,C
1998,11,2,21.1,C
1998,11,3,19.2,C
1998,11,4,20.5,C
1998,11,5,22.7,C
1998,11,6,21.0,C
1998,11,7,20.1,C
1998,11,8,20.8,C
1998,11,9,***,
1998,11,10,***,
1998,11,11,***,
1998,11,12,***,
1998,11,13,***,
1998,11,14,***,
1998,11,15,***,
1998,11,16,***,
1998,11,17,***,
1998,11,18,***,
1998,11,19,21.7,#
1998,11,20,18.3,#
1998,11,21,21.2,#
1998,11,22,***,
1998,11,23,***,
1998,11,24,***,
1998,11,25,***,
1998,11,26,***,
1998,11,27,***,
1998,11,28,***,
1998,11,29,***,
1998,11,30,***,
1998,12,1,***,
1998,12,2,24.6,#
1998,12,3,16.6,C
1998,12,4,13.7,C
1998,12,5,17.6,C
1998,12,6,17.4,C
1998,12,7,16.3,#
1998,12,8,***,
1998,12,9,***,
1998,12,10,***,
1998,12,11,***,
1998,12,12,***,
1998,12,13,***,
1998,12,14,***,
1998,12,15,***,
1998,12,16,***,
1998,12,17,***,
1998,12,18,***,
1998,12,19,***,
1998,12,20,***,
1998,12,21,***,
1998,12,22,***,
1998,12,23,***,
1998,12,24,***,
1998,12,25,***,
1998,12,26,***,
1998,12,27,***,
1998,12,28,***,
1998,12,29,***,
1998,12,30,20.8,#
1998,12,31,19.7,C
1999,1,1,18.5,C
1999,1,2,15.7,C
1999,1,3,14.7,C
1999,1,4,15.3,C
1999,1,5,14.4,C
1999,1,6,15.1,C
1999,1,7,14.6,C
1999,1,8,12.8,C
1999,1,9,15.1,C
1999,1,10,14.5,C
1999,1,11,13.6,C
1999,1,12,8.3,C
1999,1,13,9.3,C
1999,1,14,10.3,C
1999,1,15,9.3,C
1999,1,16,10.9,C
1999,1,17,12.7,C
1999,1,18,14.3,C
1999,1,19,17.2,C
1999,1,20,17.5,C
1999,1,21,16.0,C
1999,1,22,18.1,C
1999,1,23,19.4,C
1999,1,24,20.4,C
1999,1,25,19.3,C
1999,1,26,18.4,C
1999,1,27,19.7,C
1999,1,28,20.3,C
1999,1,29,18.7,C
1999,1,30,18.5,C
1999,1,31,19.9,C
1999,2,1,21.2,C
1999,2,2,17.8,C
1999,2,3,14.5,C
1999,2,4,12.8,C
1999,2,5,14.0,C
1999,2,6,15.7,C
1999,2,7,16.2,C
1999,2,8,16.4,C
1999,2,9,18.1,C
1999,2,10,19.8,C
1999,2,11,19.9,C
1999,2,12,18.0,C
1999,2,13,16.5,C
1999,2,14,17.0,C
1999,2,15,17.9,C
1999,2,16,18.2,C
1999,2,17,18.5,C
1999,2,18,20.1,C
1999,2,19,13.7,C
1999,2,20,11.0,C
1999,2,21,11.5,C
1999,2,22,15.4,C
1999,2,23,18.1,C
1999,2,24,18.8,C
1999,2,25,19.4,C
1999,2,26,22.2,C
1999,2,27,20.5,C
1999,2,28,18.2,C
1999,3,1,19.4,C
1999,3,2,19.5,C
1999,3,3,20.4,C
1999,3,4,20.8,C
1999,3,5,21.1,C
1999,3,6,21.3,C
1999,3,7,22.0,C
1999,3,8,19.1,C
1999,3,9,20.8,C
1999,3,10,19.6,C
1999,3,11,11.6,C
1999,3,12,12.0,C
1999,3,13,13.3,C
1999,3,14,13.8,C
1999,3,15,15.0,C
1999,3,16,15.5,C
1999,3,17,19.8,C
1999,3,18,23.6,C
1999,3,19,24.4,C
1999,3,20,24.4,C
1999,3,21,17.0,C
1999,3,22,11.8,C
1999,3,23,15.0,C
1999,3,24,19.7,C
1999,3,25,23.0,C
1999,3,26,24.5,C
1999,3,27,24.5,C
1999,3,28,19.7,C
1999,3,29,17.6,C
1999,3,30,16.7,C
1999,3,31,19.6,C
1999,4,1,22.9,C
1999,4,2,24.8,C
1999,4,3,19.8,C
1999,4,4,19.2,C
1999,4,5,20.0,C
1999,4,6,21.2,C
1999,4,7,23.1,C
1999,4,8,22.1,C
1999,4,9,23.5,C
1999,4,10,24.1,C
1999,4,11,22.9,C
1999,4,12,23.7,C
1999,4,13,24.0,C
1999,4,14,21.8,C
1999,4,15,22.9,C
1999,4,16,25.4,C
1999,4,17,25.2,C
1999,4,18,25.7,C
1999,4,19,22.9,C
1999,4,20,23.3,C
1999,4,21,24.4,C
1999,4,22,24.1,C
1999,4,23,25.9,C
1999,4,24,26.1,C
1999,4,25,27.0,C
1999,4,26,26.3,C
1999,4,27,23.3,C
1999,4,28,21.5,C
1999,4,29,19.5,C
1999,4,30,19.8,C
1999,5,1,20.2,C
1999,5,2,20.3,C
1999,5,3,23.3,C
1999,5,4,24.8,C
1999,5,5,20.1,C
1999,5,6,18.0,C
1999,5,7,19.6,C
1999,5,8,18.6,C
1999,5,9,17.7,C
1999,5,10,20.5,C
1999,5,11,22.8,C
1999,5,12,23.1,C
1999,5,13,23.6,C
1999,5,14,24.0,C
1999,5,15,24.0,C
1999,5,16,25.8,C
1999,5,17,26.4,C
1999,5,18,25.6,C
1999,5,19,22.1,C
1999,5,20,23.5,C
1999,5,21,23.9,C
1999,5,22,25.6,C
1999,5,23,26.5,C
1999,5,24,26.8,C
1999,5,25,26.7,C
1999,5,26,26.6,C
1999,5,27,21.7,C
1999,5,28,20.4,C
1999,5,29,22.1,C
1999,5,30,25.0,C
1999,5,31,27.0,#
1999,6,1,26.4,C
1999,6,2,27.1,C
1999,6,3,27.5,C
1999,6,4,27.9,C
1999,6,5,27.3,C
1999,6,6,28.7,C
1999,6,7,27.0,#
1999,6,8,26.9,C
1999,6,9,27.4,C
1999,6,10,26.6,C
1999,6,11,27.1,C
1999,6,12,27.2,C
1999,6,13,27.7,C
1999,6,14,27.7,C
1999,6,15,27.5,C
1999,6,16,27.5,C
1999,6,17,26.1,C
1999,6,18,26.5,C
1999,6,19,26.6,C
1999,6,20,26.0,C
1999,6,21,25.5,C
1999,6,22,25.7,C
1999,6,23,25.8,C
1999,6,24,27.2,C
1999,6,25,27.3,C
1999,6,26,27.3,C
1999,6,27,27.3,C
1999,6,28,27.3,C
1999,6,29,27.4,C
1999,6,30,27.3,C
1999,7,1,27.4,C
1999,7,2,27.7,C
1999,7,3,26.6,C
1999,7,4,25.2,C
1999,7,5,25.3,C
1999,7,6,25.3,C
1999,7,7,26.7,C
1999,7,8,25.7,C
1999,7,9,25.5,C
1999,7,10,27.6,C
1999,7,11,27.9,C
1999,7,12,28.3,C
1999,7,13,28.4,C
1999,7,14,29.0,C
1999,7,15,27.7,C
1999,7,16,26.2,C
1999,7,17,26.9,C
1999,7,18,27.0,C
1999,7,19,27.4,C
1999,7,20,27.9,C
1999,7,21,27.6,C
1999,7,22,27.1,C
1999,7,23,26.2,C
1999,7,24,28.0,C
1999,7,25,28.0,C
1999,7,26,27.1,C
1999,7,27,25.8,C
1999,7,28,27.0,C
1999,7,29,27.2,C
1999,7,30,27.2,C
1999,7,31,27.5,C
1999,8,1,27.2,C
1999,8,2,26.3,C
1999,8,3,25.9,C
1999,8,4,25.9,C
1999,8,5,25.9,C
1999,8,6,26.1,C
1999,8,7,27.2,C
1999,8,8,27.4,C
1999,8,9,26.5,C
1999,8,10,25.9,C
1999,8,11,25.6,C
1999,8,12,25.8,C
1999,8,13,24.5,C
1999,8,14,25.4,C
1999,8,15,27.2,C
1999,8,16,26.8,C
1999,8,17,27.1,C
1999,8,18,27.2,C
1999,8,19,27.6,C
1999,8,20,28.2,C
1999,8,21,28.9,#
1999,8,22,25.1,#
1999,8,23,23.1,#
1999,8,24,24.0,C
1999,8,25,23.9,C
1999,8,26,25.5,C
1999,8,27,25.1,C
1999,8,28,24.0,C
1999,8,29,24.8,C
1999,8,30,26.0,C
1999,8,31,26.1,#
1999,9,1,25.4,C
1999,9,2,25.3,C
1999,9,3,26.0,C
1999,9,4,25.6,C
1999,9,5,25.6,C
1999,9,6,26.4,C
1999,9,7,26.6,C
1999,9,8,25.3,C
1999,9,9,25.1,C
1999,9,10,25.4,C
1999,9,11,26.6,C
1999,9,12,26.1,C
1999,9,13,26.8,C
1999,9,14,27.4,C
1999,9,15,25.8,C
1999,9,16,23.5,#
1999,9,17,24.7,C
1999,9,18,25.9,C
1999,9,19,25.1,C
1999,9,20,23.6,C
1999,9,21,23.7,C
1999,9,22,24.0,C
1999,9,23,24.7,C
1999,9,24,25.0,C
1999,9,25,25.1,C
1999,9,26,24.3,C
1999,9,27,26.9,C
1999,9,28,26.9,C
1999,9,29,27.6,C
1999,9,30,27.3,C
1999,10,1,27.4,C
1999,10,2,27.8,C
1999,10,3,27.0,C
1999,10,4,25.8,C
1999,10,5,25.9,C
1999,10,6,26.3,C
1999,10,7,27.0,C
1999,10,8,26.2,C
1999,10,9,26.5,C
1999,10,10,27.2,C
1999,10,11,27.6,C
1999,10,12,27.7,C
1999,10,13,28.3,C
1999,10,14,28.3,C
1999,10,15,28.0,C
1999,10,16,27.0,C
1999,10,17,23.1,C
1999,10,18,22.5,C
1999,10,19,23.3,C
1999,10,20,25.7,C
1999,10,21,26.5,C
1999,10,22,26.5,C
1999,10,23,26.5,C
1999,10,24,25.1,C
1999,10,25,25.6,C
1999,10,26,26.2,C
1999,10,27,25.2,C
1999,10,28,25.6,C
1999,10,29,25.4,C
1999,10,30,25.8,C
1999,10,31,26.6,C
1999,11,1,23.6,C
1999,11,2,20.3,C
1999,11,3,20.5,C
1999,11,4,22.0,C
1999,11,5,24.9,C
1999,11,6,25.1,C
1999,11,7,26.0,C
1999,11,8,25.1,C
1999,11,9,23.7,C
1999,11,10,24.4,C
1999,11,11,24.4,C
1999,11,12,21.9,C
1999,11,13,22.9,C
1999,11,14,23.5,C
1999,11,15,22.4,C
1999,11,16,20.7,C
1999,11,17,19.8,C
1999,11,18,18.4,C
1999,11,19,20.0,C
1999,11,20,21.4,C
1999,11,21,22.9,C
1999,11,22,23.1,C
1999,11,23,23.3,C
1999,11,24,23.2,C
1999,11,25,23.1,C
1999,11,26,23.2,C
1999,11,27,23.5,C
1999,11,28,17.6,C
1999,11,29,14.7,C
1999,11,30,17.3,C
1999,12,1,19.3,C
1999,12,2,17.5,C
1999,12,3,17.2,C
1999,12,4,17.4,C
1999,12,5,17.8,C
1999,12,6,15.7,C
1999,12,7,16.0,C
1999,12,8,16.6,C
1999,12,9,17.8,C
1999,12,10,17.3,C
1999,12,11,19.5,C
1999,12,12,20.9,C
1999,12,13,20.2,C
1999,12,14,19.9,C
1999,12,15,20.5,C
1999,12,16,18.1,C
1999,12,17,15.9,C
1999,12,18,13.6,C
1999,12,19,14.4,C
1999,12,20,11.9,C
1999,12,21,10.4,C
1999,12,22,8.7,C
1999,12,23,8.4,C
1999,12,24,12.2,C
1999,12,25,11.6,C
1999,12,26,14.0,C
1999,12,27,17.3,C
1999,12,28,18.5,C
1999,12,29,17.0,C
1999,12,30,17.2,C
1999,12,31,19.3,C
2000,1,1,18.5,C
2000,1,2,19.0,C
2000,1,3,20.7,C
2000,1,4,21.2,C
2000,1,5,21.4,C
2000,1,6,20.6,C
2000,1,7,18.7,C
2000,1,8,18.6,C
2000,1,9,18.6,C
2000,1,10,19.2,C
2000,1,11,20.1,C
2000,1,12,20.9,C
2000,1,13,19.3,C
2000,1,14,18.6,C
2000,1,15,19.3,C
2000,1,16,19.1,C
2000,1,17,14.3,C
2000,1,18,11.1,C
2000,1,19,11.2,C
2000,1,20,13.3,C
2000,1,21,15.1,C
2000,1,22,18.4,C
2000,1,23,18.6,#
2000,1,24,17.9,C
2000,1,25,10.8,#
2000,1,26,8.1,#
2000,1,27,8.3,C
2000,1,28,10.2,C
2000,1,29,14.4,C
2000,1,30,12.7,C
2000,1,31,10.1,C
2000,2,1,9.2,C
2000,2,2,10.4,C
2000,2,3,14.4,C
2000,2,4,16.9,C
2000,2,5,17.3,C
2000,2,6,15.0,C
2000,2,7,15.0,C
2000,2,8,14.0,C
2000,2,9,15.4,C
2000,2,10,16.5,C
2000,2,11,18.9,C
2000,2,12,17.7,C
2000,2,13,19.3,C
2000,2,14,18.8,C
2000,2,15,16.6,C
2000,2,16,16.6,C
2000,2,17,17.0,C
2000,2,18,18.3,C
2000,2,19,20.9,C
2000,2,20,18.8,C
2000,2,21,13.6,C
2000,2,22,14.5,C
2000,2,23,13.4,C
2000,2,24,11.2,C
2000,2,25,10.5,C
2000,2,26,10.5,C
2000,2,27,10.5,C
2000,2,28,10.1,C
2000,2,29,11.0,C
2000,3,1,10.7,C
2000,3,2,12.9,C
2000,3,3,17.1,C
2000,3,4,19.2,C
2000,3,5,20.3,C
2000,3,6,19.5,C
2000,3,7,19.4,C
2000,3,8,17.8,C
2000,3,9,17.2,C
2000,3,10,18.3,C
2000,3,11,18.9,C
2000,3,12,17.3,C
2000,3,13,17.9,C
2000,3,14,19.8,C
2000,3,15,21.0,C
2000,3,16,19.0,C
2000,3,17,17.8,C
2000,3,18,18.8,C
2000,3,19,20.3,C
2000,3,20,20.4,C
2000,3,21,21.7,C
2000,3,22,21.8,C
2000,3,23,21.9,C
2000,3,24,20.2,C
2000,3,25,20.7,C
2000,3,26,19.8,C
2000,3,27,19.6,C
2000,3,28,21.7,C
2000,3,29,22.4,C
2000,3,30,22.4,C
2000,3,31,23.2,C
2000,4,1,24.8,C
2000,4,2,22.6,C
2000,4,3,22.0,C
2000,4,4,20.8,C
2000,4,5,20.7,C
2000,4,6,20.2,C
2000,4,7,21.0,C
2000,4,8,21.8,C
2000,4,9,23.1,C
2000,4,10,22.4,C
2000,4,11,21.8,C
2000,4,12,22.3,C
2000,4,13,22.4,C
2000,4,14,22.4,C
2000,4,15,20.8,C
2000,4,16,20.5,C
2000,4,17,21.6,C
2000,4,18,23.6,C
2000,4,19,24.9,C
2000,4,20,25.8,C
2000,4,21,24.8,C
2000,4,22,25.2,C
2000,4,23,22.9,C
2000,4,24,23.6,C
2000,4,25,26.2,C
2000,4,26,24.9,C
2000,4,27,22.7,C
2000,4,28,20.7,C
2000,4,29,23.4,C
2000,4,30,25.7,C
2000,5,1,26.2,C
2000,5,2,23.8,C
2000,5,3,21.3,C
2000,5,4,22.5,C
2000,5,5,24.1,C
2000,5,6,25.2,C
2000,5,7,24.9,C
2000,5,8,24.3,C
2000,5,9,24.8,C
2000,5,10,22.3,C
2000,5,11,24.5,C
2000,5,12,25.1,C
2000,5,13,25.9,C
2000,5,14,26.1,C
2000,5,15,27.1,C
2000,5,16,26.5,C
2000,5,17,26.2,C
2000,5,18,26.1,C
2000,5,19,20.8,C
2000,5,20,24.3,#
2000,5,21,24.0,C
2000,5,22,25.9,C
2000,5,23,25.7,C
2000,5,24,24.9,C
2000,5,25,26.2,C
2000,5,26,27.3,C
2000,5,27,27.3,C
2000,5,28,27.5,C
2000,5,29,27.4,C
2000,5,30,27.5,C
2000,5,31,27.5,C
2000,6,1,28.0,C
2000,6,2,28.0,C
2000,6,3,27.4,C
2000,6,4,27.7,C
2000,6,5,28.3,C
2000,6,6,27.9,C
2000,6,7,27.9,C
2000,6,8,27.7,C
2000,6,9,27.3,C
2000,6,10,27.8,C
2000,6,11,27.6,C
2000,6,12,22.5,C
2000,6,13,20.5,C
2000,6,14,23.2,C
2000,6,15,25.3,C
2000,6,16,26.1,C
2000,6,17,24.7,C
2000,6,18,24.2,C
2000,6,19,26.1,C
2000,6,20,25.1,C
2000,6,21,27.6,C
2000,6,22,27.5,C
2000,6,23,27.0,C
2000,6,24,27.6,C
2000,6,25,27.6,C
2000,6,26,27.6,C
2000,6,27,27.3,C
2000,6,28,27.0,C
2000,6,29,27.3,C
2000,6,30,27.5,C
2000,7,1,27.6,C
2000,7,2,26.9,C
2000,7,3,26.9,C
2000,7,4,28.0,C
2000,7,5,27.3,C
2000,7,6,25.8,C
2000,7,7,26.7,C
2000,7,8,26.3,C
2000,7,9,26.4,C
2000,7,10,27.2,C
2000,7,11,26.5,C
2000,7,12,27.0,C
2000,7,13,27.6,C
2000,7,14,27.2,C
2000,7,15,26.7,C
2000,7,16,26.1,C
2000,7,17,25.3,C
2000,7,18,24.4,C
2000,7,19,25.6,C
2000,7,20,24.8,C
2000,7,21,24.3,C
2000,7,22,26.0,C
2000,7,23,26.1,C
2000,7,24,26.8,C
2000,7,25,27.3,C
2000,7,26,27.6,C
2000,7,27,27.8,C
2000,7,28,27.7,C
2000,7,29,27.8,C
2000,7,30,27.8,C
2000,7,31,27.3,C
2000,8,1,24.2,C
2000,8,2,24.0,C
2000,8,3,24.2,C
2000,8,4,24.1,C
2000,8,5,23.8,C
2000,8,6,24.6,C
2000,8,7,25.7,C
2000,8,8,25.9,C
2000,8,9,26.3,C
2000,8,10,27.4,C
2000,8,11,27.7,C
2000,8,12,27.3,C
2000,8,13,27.4,C
2000,8,14,26.9,C
2000,8,15,27.3,C
2000,8,16,26.8,C
2000,8,17,27.8,C
2000,8,18,25.4,C
2000,8,19,26.1,C
2000,8,20,27.3,C
2000,8,21,28.1,C
2000,8,22,27.3,C
2000,8,23,26.5,C
2000,8,24,25.1,C
2000,8,25,26.7,C
2000,8,26,26.2,C
2000,8,27,25.9,C
2000,8,28,27.5,C
2000,8,29,28.9,C
2000,8,30,29.6,C
2000,8,31,28.7,C
2000,9,1,27.5,C
2000,9,2,27.1,C
2000,9,3,28.0,C
2000,9,4,27.7,C
2000,9,5,27.4,C
2000,9,6,27.8,C
2000,9,7,26.4,C
2000,9,8,25.8,C
2000,9,9,26.8,C
2000,9,10,25.3,C
2000,9,11,25.7,C
2000,9,12,26.1,C
2000,9,13,25.9,C
2000,9,14,25.0,C
2000,9,15,24.5,C
2000,9,16,24.7,C
2000,9,17,24.4,C
2000,9,18,26.1,C
2000,9,19,26.1,C
2000,9,20,24.4,C
2000,9,21,25.7,C
2000,9,22,25.6,C
2000,9,23,24.9,C
2000,9,24,24.7,C
2000,9,25,25.5,C
2000,9,26,26.1,C
2000,9,27,26.3,C
2000,9,28,26.6,C
2000,9,29,25.0,C
2000,9,30,25.5,C
2000,10,1,25.3,C
2000,10,2,25.6,C
2000,10,3,25.5,C
2000,10,4,24.1,C
2000,10,5,25.4,C
2000,10,6,24.5,C
2000,10,7,25.3,C
2000,10,8,26.1,C
2000,10,9,26.5,C
2000,10,10,26.7,C
2000,10,11,26.8,C
2000,10,12,26.1,C
2000,10,13,22.0,C
2000,10,14,18.9,C
2000,10,15,20.1,C
2000,10,16,22.2,C
2000,10,17,22.5,C
2000,10,18,22.7,C
2000,10,19,22.5,C
2000,10,20,22.5,C
2000,10,21,23.3,C
2000,10,22,24.9,C
2000,10,23,24.7,C
2000,10,24,24.5,C
2000,10,25,25.2,C